Regional Weather Roundup
Issued by NWS

Home | Current Version | Previous Version | Text Only | Print | Product List | Glossary Off
Versions: 1 2 3 4 5 6 7 8 9 10 11 12 13 14 15 16 17 18 19 20 21 22 23 24 25 26 27 28 29 30 31 32 33 34 35 36 37 38 39 40 41 42 43 44 45 46 47 48 49 50

000
ASUS43 KIND 270759
RWRIN

WEATHER ROUNDUP FOR INDIANA
NATIONAL WEATHER SERVICE INDIANAPOLIS IN
300 AM EST MON FEB 27 2017

NOTE: "FAIR" INDICATES FEW OR NO CLOUDS BELOW 12,000 FEET WITH NO
SIGNIFICANT WEATHER AND/OR OBSTRUCTIONS TO VISIBILITY.

* - STATION DOES NOT REPORT WEATHER SUCH AS PRECIPITATION OR FOG.

+ - STATION NOT QUALITY CONTROLLED BY THE NATIONAL WEATHER SERVICE.
    USE DATA WITH CAUTION...ESPECIALLY DEWPOINT AND RELATIVE
    HUMIDITY OBSERVATIONS.

INZ001>003-010>013-019-020-270900-
NORTHWEST INDIANA

CITY           SKY/WX    TMP DP  RH WIND       PRES   REMARKS
KNOX *+        CLEAR     30   7  37 S9        30.14R WCI  22
MICHIGAN CITY+ CLEAR     34  25  69 SW8       30.12R WCI  27
RENSSELAER +     N/A     30  23  74 S7        30.14S WCI  23

$$

LMZ046-743>745-270900-
SOUTHERN LAKE MICHIGAN

STATION/POSITION TIME  TEMP    WIND        PRES    WAVE
                       AIR SEA DIR/SP/G            HT
                 (UTC) (F)     (DEG/KT/KT) (MB)    (FT)
BURNS HARBOR     0740   38     210/ 14/ 19 1020.0R
MICHIGAN CITY    0730   38     190/ 14/ 16   N/A

$$

INZ004-005-014>016-021>024-270900-
NORTH CENTRAL INDIANA

CITY           SKY/WX    TMP DP  RH WIND       PRES   REMARKS
GOSHEN         CLEAR     34  22  61 SW9       30.13R WCI  27
SOUTH BEND     CLEAR     32  22  66 SW8       30.12R WCI  25

$$

INZ006>009-017-018-025>027-270900-
NORTHEAST INDIANA

CITY           SKY/WX    TMP DP  RH WIND       PRES   REMARKS
ANGOLA *+      CLEAR     36  25  64 SW8       30.10F
FORT WAYNE     PTCLDY    31  23  72 SW8       30.15R WCI  23
KENDALLVILLE + CLEAR     34  23  64 SW7       30.12S WCI  28

$$

INZ028-029-035-036-043>045-051>053-270900-
WEST CENTRAL INDIANA

CITY           SKY/WX    TMP DP  RH WIND       PRES   REMARKS
LAFAYETTE      CLOUDY    33  23  66 W3        30.16R
TERRE HAUTE    CLOUDY    40  34  79 CALM      30.16F

$$

INZ030>032-037>040-046>048-054>057-064-065-270900-
CENTRAL INDIANA

CITY           SKY/WX    TMP DP  RH WIND       PRES   REMARKS
GREENWOOD *+   CLOUDY    43  29  58 W9        30.18R
INDIANAPOLIS   LGT RAIN  41  31  67 W9        30.17R
-EAGLE CREEK   CLOUDY    42  30  62 SW7       30.17R
KOKOMO +       CLOUDY    34  23  64 SW8       30.16R WCI  27
MT COMFORT *+  CLOUDY    41  23  48 SW5       30.18R
SHELBYVILLE    CLOUDY    44  27  51 W8        30.17R

$$

INZ033-034-041-042-049-050-058-059-270900-
EAST CENTRAL INDIANA

CITY           SKY/WX    TMP DP  RH WIND       PRES   REMARKS
MUNCIE         CLOUDY    41  21  44 SW6       30.16R

$$

INZ060-061-067>069-081>083-085>088-270900-
SOUTHWEST INDIANA

CITY           SKY/WX    TMP DP  RH WIND       PRES   REMARKS
EVANSVILLE     CLOUDY    45  30  55 CALM      30.18R
HUNTINGBURG *+ CLOUDY    42  25  50 CALM      30.18R

$$

INZ062-063-066-070>080-084-089>092-270900-
SOUTH CENTRAL AND SOUTHEAST INDIANA

CITY           SKY/WX    TMP DP  RH WIND       PRES   REMARKS
BLOOMINGTON    CLOUDY    43  31  62 CALM      30.16F
MADISON *+     CLOUDY    41  25  52 S3        30.22R
SEYMOUR +      CLOUDY    41  32  70 CALM      30.19R

$$




USA.gov is the U.S. government's official web portal to all federal, state and local government web resources and services.